Regional Weather Roundup
Issued by NWS

Home | Current Version | Previous Version | Text Only | Print | Product List | Glossary Off
Versions: 1 2 3 4 5 6 7 8 9 10 11 12 13 14 15 16 17 18 19 20 21 22 23 24 25 26 27 28 29 30 31 32 33 34 35 36 37 38 39 40 41 42 43 44 45 46 47 48 49 50

000
ASUS45 KTFX 311410
RWRMT
MONTANA REGIONAL WEATHER ROUNDUP
NATIONAL WEATHER SERVICE GREAT FALLS MT
800 AM MDT FRI JUL 31 2015

NOTE: "FAIR" INDICATES FEW OR NO CLOUDS BELOW 12000 FEET WITH NO
SIGNIFICANT WEATHER AND/OR OBSTRUCTIONS TO VISIBILITY.

MTZ001>007-043-311500-
WEST OF THE DIVIDE

CITY           SKY/WX    TMP DP  RH WIND       PRES   REMARKS
KALISPELL      SUNNY     59  42  53 CALM      30.21R
MISSOULA       PTSUNNY   56  43  61 CALM      30.28R
BUTTE          SUNNY     51  39  63 CALM      30.38R
MULLAN PASS    SUNNY     68  30  24 S3        30.36S
DEER LODGE       N/A     59  45  58 CALM      30.36S
EUREKA           N/A     61  39  44 CALM      30.21S
HAMILTON         N/A     59  43  55 SW3       30.28R
LIBBY            N/A     55  37  50 CALM      30.21R
RONAN            N/A     58  48  69 CALM      30.24R
$$

MTZ008-052>055-311500-
SOUTHWEST MONTANA

CITY           SKY/WX    TMP DP  RH WIND       PRES   REMARKS
BOZEMAN        SUNNY     59  47  64 SE5       30.31S
DILLON         SUNNY     56  42  59 S8        30.35R
THREE FORKS      N/A     55  33  43 CALM      30.26S
TWIN BRIDGES     N/A     56  42  59 SE6       30.29R
$$

MTZ009-010-012-014-046-048-049-054-311500-
EAST SLOPES AND CENTRAL MONTANA

CITY           SKY/WX    TMP DP  RH WIND       PRES   REMARKS
CUT BANK       SUNNY     63  38  39 W8        30.21R
GREAT FALLS    SUNNY     66  43  43 SW12      30.21R
MALMSTROM AFB  SUNNY     64  44  48 W3        30.21R
HELENA         SUNNY     60  43  53 CALM      30.27S
$$

MTZ011-013-016-021-045-047-050-051-311500-
NORTH CENTRAL MONTANA

CITY           SKY/WX    TMP DP  RH WIND       PRES   REMARKS
HAVRE          SUNNY     60  51  72 CALM      30.15R
LEWISTOWN      SUNNY     64  46  52 SE6       30.23S
CHINOOK          N/A     63  54  72 SE7       30.14R
$$

MTZ017>020-022>027-061-062-311500-
NORTHEAST MONTANA

CITY           SKY/WX    TMP DP  RH WIND       PRES   REMARKS
GLASGOW        SUNNY     67  49  52 SE8       30.17S
JORDAN           N/A     63  48  58 CALM      30.17F
SIDNEY         SUNNY     61  52  72 S7        30.17S
WOLF POINT     SUNNY     62  50  64 W3        30.18S
MALTA            N/A     64  54  70 NE6       30.11F
PLENTYWOOD       N/A     63  54  72 NW5       30.18S
POPLAR           N/A     63  54  72 SW3       30.19R
$$

MTZ028>42-056>058-311500-
SOUTHCENTRAL AND SOUTHEAST MONTANA

CITY           SKY/WX    TMP DP  RH WIND       PRES   REMARKS
BAKER          SUNNY     71  49  45 CALM      30.23S
BILLINGS       SUNNY     61  43  51 SW8       30.24S
LIVINGSTON     SUNNY     56  43  61 NW5       30.31S
MILES CITY     SUNNY     66  47  50 SE8       30.19S
FORSYTH          N/A     72  50  46 CALM      30.18S
LAUREL           N/A     60  43  53 SW2       30.21S
ROUNDUP          N/A     59  43  55 SW7       30.12S
$$

REGIONAL REPORTS...DAKOTAS

CITY           SKY/WX    TMP DP  RH WIND       PRES   REMARKS
WILLISTON      SUNNY     65  52  62 SW7       30.16S
MINOT          SUNNY     67  52  58 W7        30.14S
DICKINSON      SUNNY     71  52  50 W10       30.18S
BEACH          FAIR      68  50  52 SW5       30.22S
CROSBY         FAIR      64  57  77 NW7       30.17R
BISMARCK       MOSUNNY   64  53  67 SW5       30.17F
GRAND FORKS    MOSUNNY   69  55  60 W13       30.06S
FARGO          SUNNY     68  55  63 W15       30.10R
BUFFALO SD       N/A     64  50  60 CALM      30.18S
RAPID CITY     SUNNY     66  51  58 N10       30.23R
$$

REGIONAL REPORTS...WYOMING/IDAHO/WASHINGTON

CITY           SKY/WX    TMP DP  RH WIND       PRES   REMARKS
GILLETTE         N/A     71  48  43 CALM      30.28R
SHERIDAN       SUNNY     63  45  51 CALM      30.26R
BUFFALO WY     SUNNY     72  41  32 CALM      30.32R
CODY           SUNNY     66  36  32 SW5       30.33S
YELLOWSTONE LA   N/A     46  38  73 CALM      30.54S
IDAHO FALLS    SUNNY     52  45  77 N5        30.32R
SALMON         SUNNY     55  45  67 CALM      30.32S
BOISE          SUNNY     67  40  37 CALM      30.17R
SPOKANE        MOSUNNY   67  43  41 E3        30.13R
$$

REGIONAL REPORTS...ALBERTA

CITY           SKY/WX    TMP DP  RH WIND       PRES   REMARKS
EDMONTON       SUNNY     63  50  63 S8        30.11F
CALGARY        MOSUNNY   57  43  58 SW3       30.19S
LETHBRIDGE     SUNNY     55  46  71 W12       30.18S
MEDICINE HAT   SUNNY     61  48  63 S3        30.13S
WATERTON GATE    N/A     64  41  42 S10         N/A
MILK RIVER       N/A     63  41  45 W10         N/A
ONEFOUR          N/A     64  48  55 E10         N/A
$$

REGIONAL REPORTS...SASKATCHEWAN

CITY           SKY/WX    TMP DP  RH WIND       PRES   REMARKS
SWIFT CURRENT  SUNNY     63  54  72 S7        30.18F
REGINA         MOSUNNY   63  54  72 NW5       30.18S
SASKATOON      MOSUNNY   59  50  72 W7        30.18R
CYPRESS HILLS    N/A     64  45  48 SE7         N/A
VAL MARIE        N/A     61  54  77 NE6         N/A
ROCKGLEN         N/A     64  52  63 NW5         N/A
ASSINIBOIA       N/A     59  52  77 S6          N/A
$$


USA.gov is the U.S. government's official web portal to all federal, state and local government web resources and services.